Theta_e
309 309 309 309 309 309 309 311 312 313 314 314 314 314 314 314 313 311 311 313 314 313 313 313 314 315 315 315 314 309 309 310 313 313 313 311 312 311 309 312 310 311 312 311 314
309 309 309 309 310 309 309 312 312 314 315 316 316 316 315 315 313 314 314 315 315 313 313 313 313 313 310 315 314 309 306 308 310 313 314 313 312 312 311 309 310 310 309 313 315
309 309 310 310 310 309 310 312 313 315 316 317 317 317 315 314 312 311 313 315 314 313 313 314 314 313 314 314 316 312 310 310 313 312 313 313 312 311 312 312 309 310 310 309 311
310 310 310 310 310 310 310 311 314 316 318 319 318 317 314 314 311 314 312 310 312 311 315 314 312 313 313 313 312 316 313 313 314 313 313 313 312 313 311 311 310 308 306 306 303
312 311 312 312 312 313 314 314 316 317 318 319 319 317 313 313 313 315 314 312 311 311 313 312 312 311 313 311 311 312 312 312 312 310 310 310 311 312 310 308 307 305 303 303 303
313 313 312 312 313 315 317 317 318 319 320 320 319 314 313 314 315 315 315 312 311 312 312 312 311 310 311 311 311 310 311 310 309 310 310 311 310 310 310 309 306 304 304 303 302
315 315 314 314 314 316 318 318 319 320 320 321 318 312 315 313 314 315 314 312 312 312 311 312 312 312 311 312 310 311 311 309 309 310 310 308 311 310 309 308 304 304 303 302 301
316 315 315 314 315 316 318 319 320 320 321 320 312 313 312 313 314 315 314 314 313 313 313 312 312 311 312 311 309 310 309 311 312 310 311 310 313 312 309 309 303 303 301 301 300
316 315 315 315 315 317 319 320 321 320 320 315 313 314 314 310 311 312 313 312 312 311 311 312 311 310 309 308 308 308 312 310 310 311 311 310 311 310 309 308 303 303 301 301 299
316 315 315 315 316 318 319 321 318 315 314 315 316 313 312 311 310 311 311 311 310 309 309 309 306 308 307 307 313 312 310 309 309 311 311 312 310 308 307 309 303 301 300 299 298
317 316 315 315 316 318 320 320 316 315 316 315 314 314 311 310 310 309 310 310 310 309 309 309 308 309 309 308 309 311 309 309 308 308 311 311 310 308 304 302 303 301 300 298 297
320 317 316 315 317 318 319 318 315 314 318 315 313 310 311 310 311 309 310 309 310 311 308 309 309 309 309 308 309 309 310 309 309 310 311 311 311 305 304 303 302 300 299 298 297
323 321 317 316 317 318 319 320 316 313 317 317 315 315 314 311 313 312 308 308 311 311 310 312 313 310 309 310 310 310 311 312 312 311 309 310 310 308 304 302 300 299 298 297 296
325 323 319 317 317 319 320 320 318 313 319 318 317 314 310 312 315 308 308 310 310 312 311 310 310 311 310 311 310 314 311 312 312 311 312 309 313 308 304 302 300 299 297 296 295
324 324 321 316 319 318 319 319 316 313 329 318 314 308 308 315 309 308 307 309 312 312 311 315 314 312 313 312 312 314 310 310 310 309 310 310 311 309 304 305 302 299 297 296 294
324 324 322 317 319 320 316 314 314 324 329 315 309 309 309 307 308 306 308 307 309 312 310 313 309 309 310 309 310 309 308 308 307 308 312 310 311 312 306 306 302 300 297 296 294
323 323 322 317 318 319 313 317 326 323 318 314 310 308 308 308 308 308 308 308 309 311 314 311 311 309 308 309 308 307 307 312 314 313 316 310 311 311 306 304 302 300 297 295 293
321 322 320 318 318 319 316 322 322 321 322 311 310 309 311 311 309 308 308 309 307 310 311 314 315 310 307 309 310 307 308 313 314 315 315 310 315 311 302 301 300 298 295 293 292
320 320 318 318 319 319 320 325 323 322 321 320 317 316 317 317 316 311 310 311 311 308 315 314 314 308 307 308 309 309 310 310 310 295 308 311 309 304 301 300 298 296 294 292 292
318 317 317 318 319 318 323 325 322 318 320 318 317 315 317 317 317 315 313 311 312 307 310 312 313 310 309 308 307 309 308 313 309 309 310 311 310 311 303 301 297 296 294 292 291
313 317 314 317 317 319 324 322 318 316 320 319 317 318 315 317 316 317 315 313 310 309 308 309 311 311 310 309 310 309 309 310 310 309 307 306 308 305 305 302 298 296 295 293 290
309 319 311 314 319 318 318 317 316 317 318 321 319 321 321 319 319 316 316 311 308 308 311 310 311 309 311 307 306 307 309 309 315 312 308 309 311 301 304 301 299 297 296 292 290
308 308 307 310 321 317 315 315 316 316 318 320 320 319 318 319 321 319 315 307 306 309 311 311 312 306 311 307 307 308 308 307 306 304 308 310 310 300 300 299 298 298 296 293 290
306 310 307 308 312 314 315 316 317 315 316 316 318 317 317 318 316 315 313 307 303 307 308 308 307 308 314 308 306 307 308 306 305 304 307 307 304 302 301 300 297 295 294 291 289
303 305 305 308 308 312 313 312 314 315 314 315 315 317 317 315 314 312 310 308 305 303 304 307 311 306 305 306 306 305 307 306 304 304 307 305 305 302 300 298 296 292 289 286 286
302 303 302 302 306 310 311 310 313 313 313 312 313 312 314 315 312 310 308 307 309 301 304 300 307 303 304 298 299 303 303 305 304 304 301 302 304 298 296 288 288 287 286 286 286
298 297 301 304 303 305 306 307 310 311 307 306 309 308 309 310 303 298 300 301 302 304 303 301 300 301 305 292 293 297 297 303 304 301 303 303 301 290 287 289 287 286 285 286 286
Wind_Speed
4 3 3 4 4 5 5 6 7 9 10 12 13 13 14 16 16 12 4 2 0 3 1 4 3 3 3 3 3 3 4 1 4 4 3 3 5 3 2 1 4 3 2 3 5
5 5 5 5 5 5 5 6 7 9 11 12 13 13 14 16 16 8 2 3 3 3 3 4 2 2 3 2 2 4 3 7 4 2 2 3 1 4 5 7 3 4 6 3 1
8 7 7 7 7 7 6 7 8 9 10 12 12 12 13 13 5 2 1 4 5 4 3 5 5 2 2 1 1 3 5 4 4 5 2 2 2 2 2 5 7 7 4 6 6
10 9 9 9 9 8 8 7 8 9 10 11 12 11 10 6 4 1 1 2 6 9 5 3 3 3 2 2 2 1 6 4 3 2 1 3 1 3 5 9 4 4 7 5 9
10 10 10 10 9 9 8 8 8 9 11 12 11 11 5 2 7 3 2 2 5 11 5 4 3 4 3 3 0 3 3 3 5 7 5 3 6 5 9 11 5 9 13 10 9
11 11 10 10 10 9 9 8 9 10 11 12 10 8 1 4 3 3 2 4 5 8 5 5 5 5 3 2 4 1 3 7 7 9 3 5 2 5 7 3 10 11 9 9 12
12 12 11 10 10 10 10 10 10 11 12 11 9 3 1 11 4 4 2 2 5 6 4 4 4 3 3 1 2 1 5 7 6 2 5 6 1 6 7 4 10 9 8 10 14
14 12 12 11 11 11 11 12 12 13 13 10 4 1 6 5 5 7 5 3 4 4 3 4 4 3 2 1 6 2 3 3 3 3 1 4 6 5 3 4 7 8 7 10 12
15 13 12 11 10 11 12 13 14 13 8 4 2 2 8 2 4 7 6 4 6 5 4 4 3 2 4 5 4 4 3 5 8 1 2 2 5 6 5 6 8 7 8 9 11
15 14 13 11 10 10 13 13 9 4 2 3 0 2 3 4 5 6 7 9 3 5 3 4 5 3 2 4 5 6 5 5 5 1 3 2 7 10 9 3 10 8 8 10 11
17 15 13 11 10 9 11 6 3 2 5 9 6 4 2 4 6 4 5 7 4 3 5 0 4 8 12 10 2 3 5 5 4 6 0 6 5 6 11 8 9 8 9 10 10
19 17 14 12 10 9 6 4 4 1 7 13 7 6 5 6 3 4 10 6 4 6 5 3 7 11 3 5 6 5 5 6 4 6 4 5 7 5 10 5 6 8 8 8 7
23 20 16 13 11 11 11 12 6 3 3 7 6 5 5 11 7 8 11 5 5 6 7 8 6 4 8 6 6 5 6 4 7 3 3 1 4 2 5 8 10 8 8 7 7
25 25 21 14 7 12 7 13 10 2 4 6 5 4 3 6 4 3 11 5 3 10 6 7 5 6 4 6 8 4 7 7 4 4 4 1 4 3 4 5 6 5 5 5 6
27 26 28 25 5 8 5 14 11 4 6 1 3 3 3 5 5 1 1 3 6 7 7 6 4 4 5 9 6 7 4 5 3 3 1 2 2 3 7 4 4 4 4 5 5
24 26 29 27 18 8 10 17 8 5 12 4 4 5 5 3 2 3 2 3 2 3 0 5 1 3 6 2 6 5 5 6 4 3 2 8 7 4 6 7 8 5 6 7 5
24 26 32 28 13 25 19 9 5 6 1 6 5 6 4 5 4 5 6 5 6 5 5 2 4 2 3 4 2 3 5 1 2 1 5 4 3 3 6 3 15 16 8 7 6
26 26 33 38 25 26 17 4 6 7 8 2 5 4 6 6 5 7 7 6 6 2 4 6 4 8 5 6 6 6 7 5 7 4 3 1 6 3 2 8 13 12 10 7 7
21 28 15 32 35 32 7 9 7 6 6 8 4 4 4 4 6 4 7 5 8 11 7 6 5 1 3 3 5 5 5 3 5 3 3 4 1 1 4 7 10 10 9 8 7
13 10 8 27 35 23 9 15 7 3 4 4 9 7 9 8 8 8 9 6 6 11 2 6 2 1 1 2 2 4 5 2 2 2 5 4 5 4 8 12 10 10 10 8 7
7 3 6 21 31 6 8 7 5 6 6 7 9 8 7 8 8 6 7 2 5 3 5 5 3 2 3 6 7 2 1 0 2 4 5 2 5 2 15 17 17 13 11 10 8
3 4 7 23 6 3 6 5 4 6 2 2 3 0 7 7 6 7 8 3 4 5 8 5 4 4 7 1 2 2 7 7 5 5 2 2 8 7 8 15 14 13 10 7 7
3 2 5 2 8 5 3 4 5 5 5 7 7 5 3 7 7 14 4 3 4 3 7 7 1 2 6 1 2 4 4 4 4 3 8 6 6 5 6 8 8 8 8 8 8
2 2 1 2 2 2 4 2 5 2 3 4 3 6 3 5 2 5 3 3 5 3 8 4 3 8 12 5 4 4 5 5 5 4 5 8 3 3 5 8 7 6 7 7 7
2 1 2 2 5 5 6 6 8 6 2 3 3 10 12 5 5 3 3 0 1 3 3 3 6 2 2 4 2 1 4 10 8 7 9 5 9 11 10 9 8 7 6 7 8
4 3 2 1 6 13 7 8 8 4 7 5 4 9 8 8 7 9 6 3 6 2 5 2 4 3 1 4 4 4 9 7 6 4 6 3 17 8 4 5 6 9 9 8 7
1 2 2 4 4 3 5 6 3 6 3 2 4 4 5 6 4 3 4 3 5 7 6 5 6 4 5 3 3 8 10 17 11 7 10 13 12 6 5 8 10 9 9 8 7
Wind_Direction
300 305 314 319 325 332 338 343 345 345 346 342 339 335 330 327 325 315 272 209 69 166 174 152 113 60 40 58 49 112 62 206 240 184 257 325 11 307 290 222 337 298 249 308 318
275 283 291 296 299 306 312 323 329 336 338 338 337 333 330 330 325 298 252 217 183 187 166 143 99 64 40 44 26 85 118 223 219 204 245 294 273 334 356 332 274 306 315 8 23
272 273 276 279 285 289 293 307 319 326 333 335 333 330 330 332 337 257 296 198 205 191 169 130 94 79 49 52 200 156 197 208 251 224 223 263 254 204 269 292 237 278 282 348 315
276 280 281 281 283 288 288 294 308 318 325 330 327 325 328 335 297 214 154 150 173 172 144 146 73 90 142 225 198 244 246 214 264 159 337 246 276 271 201 242 67 302 302 345 14
280 278 283 287 290 295 296 293 302 312 319 324 323 322 328 350 252 237 244 214 185 179 176 143 139 148 190 208 287 212 275 284 266 288 250 302 246 251 259 264 1 58 49 41 41
274 278 279 285 288 293 298 300 301 307 316 319 317 317 14 255 249 237 243 207 196 179 182 159 188 193 168 220 172 231 272 277 285 266 251 230 267 137 286 77 58 73 56 43 38
267 272 276 277 281 288 293 295 297 301 309 310 310 280 167 244 239 221 190 189 191 189 156 188 186 134 130 269 319 303 315 323 263 286 222 162 87 231 255 5 73 79 66 52 37
265 266 270 273 278 285 291 294 295 296 300 296 295 173 244 246 224 223 214 187 172 179 162 151 160 124 164 116 10 349 45 338 278 174 243 141 257 270 295 32 99 83 60 57 41
261 263 263 267 273 284 291 298 299 294 279 251 237 172 264 223 212 210 193 167 147 133 133 133 112 111 48 98 4 2 239 216 311 233 148 142 253 282 342 48 117 93 60 56 46
257 260 261 260 266 281 294 302 299 297 182 183 128 356 246 222 170 168 171 162 127 113 60 66 56 95 62 111 222 213 220 244 237 322 46 306 255 278 319 321 142 100 78 64 55
254 254 254 254 261 273 304 318 291 274 215 192 190 229 138 143 142 166 158 134 99 87 161 131 121 205 206 202 184 179 196 222 255 269 315 246 245 338 338 42 97 96 87 77 63
248 249 250 249 251 259 270 261 262 322 297 234 229 263 236 183 128 198 166 152 158 191 117 60 224 229 132 173 207 239 243 253 280 264 169 270 282 55 34 39 87 97 81 75 71
246 246 242 238 241 252 230 224 286 328 269 284 202 191 198 173 209 197 161 155 172 179 191 189 210 157 180 192 192 207 197 211 222 322 286 281 289 149 56 68 72 65 89 86 80
245 242 233 215 235 220 229 241 231 170 280 248 219 246 138 137 243 160 184 148 201 202 184 244 236 190 176 220 157 208 212 220 221 138 228 83 268 169 120 75 78 78 74 86 90
245 244 224 204 188 179 202 195 167 110 271 132 159 129 137 171 125 282 117 74 175 179 138 236 192 174 188 220 161 227 151 170 168 151 47 284 97 257 130 158 157 131 112 85 69
252 244 227 204 224 204 178 151 121 163 233 221 137 162 132 169 151 118 118 52 140 147 220 224 284 207 204 98 162 140 97 47 57 89 255 224 174 226 191 187 156 159 147 129 124
249 249 230 192 212 210 163 121 190 200 55 199 187 166 165 161 170 163 162 173 165 140 202 224 226 241 169 106 46 100 96 307 347 341 230 130 132 272 327 233 162 154 153 152 142
252 249 236 205 205 193 163 183 196 184 203 143 133 115 177 159 207 176 140 195 235 195 126 167 242 174 191 192 180 185 166 166 211 201 241 103 232 241 32 106 126 142 152 152 154
253 245 224 207 200 187 183 211 213 186 168 145 80 122 222 226 166 148 193 209 203 188 174 164 267 163 157 142 145 191 186 175 102 28 51 224 338 152 120 122 135 151 160 170 170
208 207 216 206 201 182 209 218 207 205 139 173 168 169 180 194 166 175 178 205 213 191 222 197 150 136 142 97 22 166 164 89 14 169 238 272 267 207 194 180 172 177 185 187 176
183 213 182 193 187 201 220 205 194 220 170 196 190 178 178 181 184 189 199 234 200 189 154 149 134 234 112 197 183 134 200 101 157 154 179 248 256 245 192 182 182 187 192 187 179
110 224 162 164 197 183 193 186 202 167 154 151 68 24 172 172 180 193 207 237 3 172 166 190 142 172 201 125 306 234 205 170 196 218 225 160 256 327 181 176 173 189 193 176 179
166 159 316 249 202 187 139 187 209 160 191 172 187 199 132 201 213 210 210 67 9 216 164 182 57 47 341 340 3 223 202 155 109 62 207 191 256 25 105 141 173 175 186 176 177
321 142 330 334 339 114 172 184 194 174 209 154 183 133 140 168 286 161 180 39 357 35 30 38 113 184 220 192 130 182 201 193 156 177 176 224 208 193 169 166 184 180 167 172 172
98 280 57 204 230 202 151 191 210 204 224 211 171 203 200 160 160 202 184 30 24 18 46 107 238 175 10 29 53 268 229 187 192 210 208 243 223 190 192 194 201 190 169 160 166
150 198 115 286 292 204 176 193 186 174 179 182 214 201 198 205 188 180 161 170 207 129 176 195 187 125 171 16 24 284 238 217 227 211 266 246 269 166 195 110 159 182 169 170 180
142 82 110 175 173 179 207 177 168 175 199 163 212 155 192 221 121 105 140 149 124 157 170 160 134 132 229 31 44 287 222 209 215 209 207 226 241 164 174 195 182 178 178 174 181